カタログに戻る

USA 482

運用中軍事VLEO
NORAD 62551·PAYLOAD·🇺🇸 United States

打ち上げ Jan 10, 2025 から Vandenberg Space Force Base

Loading…

次のパス (今後24時間)

TLE

古いSource: Mike McCants

元期: Aug 26, 2026, 02:23 UTC

1 62551U 25005V   26238.09973037 0.00000000  00000-0  00000-0 0    03
2 62551  70.0280 226.5670 0004000 195.8720 164.1280 14.96713478    04

AllMySatでUSA 482をリアルタイム追跡

Download on the App Store